GW3504 Weather Reports


Display with metric or nautical units.
time (UTC)temp
F
wind
direction
speed
MPH
gust
MPH
rain 1hr
in
rain 24hr
in
rain mn
in
humidity
%
barometer
mb
20260903191025 95 143 5.0 13.0 0.00 0.00 0.00 46 1012.4
20260903190525 96 0 3.0 11.0 0.00 0.00 0.00 46 1012.4
20260903190048 95 198 5.0 11.0 0.00 0.00 0.00 46 1012.5
20260903185523 96 155 3.0 16.0 0.00 0.00 0.00 46 1012.5
20260903185024 95 253 3.0 16.0 0.00 0.00 0.00 47 1012.6
20260903184542 95 0 5.0 15.0 0.00 0.00 0.00 47 1012.7
20260903184027 95 159 4.0 15.0 0.00 0.00 0.00 47 1012.7
20260903183528 95 196 3.0 15.0 0.00 0.00 0.00 48 1012.8
20260903183052 94 133 6.0 15.0 0.00 0.00 0.00 49 1012.8
20260903182526 93 164 4.0 17.0 0.00 0.00 0.00 49 1012.9
20260903182024 94 176 5.0 20.0 0.00 0.00 0.00 48 1013.1
20260903181545 95 171 5.0 20.0 0.00 0.00 0.00 45 1013.0
20260903181023 95 0 1.0 9.0 0.00 0.00 0.00 48 1013.1
20260903180524 95 0 3.0 14.0 0.00 0.00 0.00 46 1013.1
20260903180044 94 0 4.0 14.0 0.00 0.00 0.00 46 1013.3
20260903175528 95 153 3.0 11.0 0.00 0.00 0.00 46 1013.4
20260903175024 94 225 4.0 12.0 0.00 0.00 0.00 48 1013.4
20260903174600 94 165 3.0 12.0 0.00 0.00 0.00 47 1013.5
20260903174024 94 271 2.0 12.0 0.00 0.00 0.00 47 1013.5
20260903173525 94 0 3.0 12.0 0.00 0.00 0.00 47 1013.6
20260903173043 94 327 2.0 14.0 0.00 0.00 0.00 48 1013.6
20260903172524 93 0 4.0 14.0 0.00 0.00 0.00 50 1013.6
20260903172024 93 152 5.0 14.0 0.00 0.00 0.00 48 1013.7
20260903171548 93 141 2.0 12.0 0.00 0.00 0.00 49 1013.8
20260903171021 92 180 3.0 13.0 0.00 0.00 0.00 49 1013.9
20260903170524 92 181 5.0 15.0 0.00 0.00 0.00 49 1014.0
20260903170104 92 263 3.0 15.0 0.00 0.00 0.00 50 1014.0
20260903165522 92 192 3.0 13.0 0.00 0.00 0.00 51 1014.1
20260903165024 91 171 5.0 12.0 0.00 0.00 0.00 51 1014.1
20260903164550 91 317 4.0 15.0 0.00 0.00 0.00 52 1014.1
20260903164024 91 166 4.0 15.0 0.00 0.00 0.00 53 1014.1
20260903163523 91 165 4.0 14.0 0.00 0.00 0.00 52 1014.1
20260903163045 91 218 3.0 14.0 0.00 0.00 0.00 53 1014.1
20260903162522 91 152 1.0 14.0 0.00 0.00 0.00 53 1014.1
20260903162025 90 182 4.0 14.0 0.00 0.00 0.00 54 1014.1
20260903161544 90 156 2.0 12.0 0.00 0.00 0.00 54 1014.2
20260903161026 90 199 3.0 16.0 0.00 0.00 0.00 54 1014.1
20260903160525 89 215 6.0 16.0 0.00 0.00 0.00 53 1014.1
20260903160041 90 113 5.0 13.0 0.00 0.00 0.00 54 1014.1
20260903155525 89 163 2.0 13.0 0.00 0.00 0.00 55 1014.1
20260903155026 89 201 4.0 13.0 0.00 0.00 0.00 55 1014.3
20260903154546 89 117 4.0 13.0 0.00 0.00 0.00 55 1014.2
20260903154024 89 0 2.0 12.0 0.00 0.00 0.00 58 1014.2
20260903153525 88 271 2.0 13.0 0.00 0.00 0.00 57 1014.1
20260903153054 88 0 3.0 13.0 0.00 0.00 0.00 58 1014.2
20260903152526 87 41 4.0 13.0 0.00 0.00 0.00 58 1014.3
20260903152024 87 256 3.0 11.0 0.00 0.00 0.00 59 1014.3
20260903151553 87 0 2.0 18.0 0.00 0.00 0.00 59 1014.3
20260903151023 86 0 3.0 18.0 0.00 0.00 0.00 61 1014.3
20260903150522 86 166 5.0 18.0 0.00 0.00 0.00 60 1014.2
20260903150046 86 12 2.0 17.0 0.00 0.00 0.00 62 1014.2
20260903145528 86 154 3.0 17.0 0.00 0.00 0.00 62 1014.2
20260903145028 86 194 3.0 14.0 0.00 0.00 0.00 62 1014.1
20260903144547 85 173 3.0 14.0 0.00 0.00 0.00 63 1014.1
20260903144025 85 196 2.0 14.0 0.00 0.00 0.00 64 1014.2
20260903143525 84 206 1.0 13.0 0.00 0.00 0.00 66 1014.3
20260903143044 84 0 3.0 13.0 0.00 0.00 0.00 66 1014.3
20260903142525 83 205 3.0 10.0 0.00 0.00 0.00 66 1014.4
20260903142026 83 0 1.0 16.0 0.00 0.00 0.00 67 1014.3
20260903141549 82 159 2.0 16.0 0.00 0.00 0.00 68 1014.3
20260903141025 82 228 3.0 11.0 0.00 0.00 0.00 68 1014.4
20260903140524 82 178 2.0 11.0 0.00 0.00 0.00 68 1014.4
20260903140047 82 175 1.0 7.0 0.00 0.00 0.00 69 1014.4
20260903135525 81 164 1.0 13.0 0.00 0.00 0.00 69 1014.3
20260903135025 81 244 2.0 13.0 0.00 0.00 0.00 69 1014.5
20260903134544 80 194 3.0 11.0 0.00 0.00 0.00 70 1014.5
20260903134027 80 161 1.0 10.0 0.00 0.00 0.00 70 1014.5
20260903133525 80 0 1.0 6.0 0.00 0.00 0.00 71 1014.6
20260903133054 79 169 1.0 8.0 0.00 0.00 0.00 71 1014.5
20260903132523 79 0 1.0 8.0 0.00 0.00 0.00 71 1014.5
20260903132024 79 200 1.0 9.0 0.00 0.00 0.00 72 1014.5
20260903131555 78 161 3.0 9.0 0.00 0.00 0.00 72 1014.5
20260903131026 78 180 2.0 8.0 0.00 0.00 0.00 72 1014.5
20260903130525 78 176 1.0 8.0 0.00 0.00 0.00 73 1014.5
20260903130044 77 0 3.0 10.0 0.00 0.00 0.00 73 1014.5
20260903125523 77 206 2.0 10.0 0.00 0.00 0.00 74 1014.5
20260903125023 77 162 2.0 6.0 0.00 0.00 0.00 74 1014.4
20260903124546 77 0 1.0 5.0 0.00 0.00 0.00 74 1014.4
20260903124022 77 0 1.0 5.0 0.00 0.00 0.00 74 1014.3
20260903123526 77 180 1.0 10.0 0.00 0.00 0.00 73 1014.3
20260903123048 77 177 2.0 10.0 0.00 0.00 0.00 74 1014.2
20260903122529 77 180 0.0 6.0 0.00 0.00 0.00 74 1014.2
20260903122026 76 190 0.0 7.0 0.00 0.00 0.00 74 1014.2
20260903121546 77 186 1.0 7.0 0.00 0.00 0.00 73 1014.1
20260903121023 76 155 1.0 6.0 0.00 0.00 0.00 74 1014.1
20260903120525 76 214 0.0 9.0 0.00 0.00 0.00 73 1014.0
20260903120048 76 165 1.0 9.0 0.00 0.00 0.00 73 1013.9
20260903115531 77 169 0.0 5.0 0.00 0.00 0.00 73 1013.9
20260903115028 77 0 0.0 6.0 0.00 0.00 0.00 73 1013.8
20260903114542 77 0 1.0 6.0 0.00 0.00 0.00 73 1013.7
20260903114023 77 167 1.0 6.0 0.00 0.00 0.00 72 1013.6
20260903113526 77 168 1.0 10.0 0.00 0.00 0.00 72 1013.7
20260903113042 77 191 1.0 10.0 0.00 0.00 0.00 72 1013.6
20260903112525 77 180 3.0 10.0 0.00 0.00 0.00 72 1013.6
20260903112025 77 188 1.0 8.0 0.00 0.00 0.00 72 1013.6
20260903111615 77 180 0.0 7.0 0.00 0.00 0.00 72 1013.7
20260903111028 77 173 1.0 7.0 0.00 0.00 0.00 72 1013.7
20260903110524 77 0 0.0 8.0 0.00 0.00 0.00 72 1013.5
20260903110043 77 180 2.0 9.0 0.00 0.00 0.00 72 1013.6
20260903105526 77 0 1.0 9.0 0.00 0.00 0.00 72 1013.6
20260903105025 77 212 1.0 7.0 0.00 0.00 0.00 72 1013.6
20260903104600 77 183 0.0 6.0 0.00 0.00 0.00 72 1013.5
20260903104026 77 0 1.0 6.0 0.00 0.00 0.00 71 1013.5
20260903103525 77 155 2.0 7.0 0.00 0.00 0.00 71 1013.5
20260903103042 77 178 2.0 7.0 0.00 0.00 0.00 71 1013.5
20260903102526 77 0 1.0 7.0 0.00 0.00 0.00 70 1013.5
20260903102025 77 165 1.0 7.0 0.00 0.00 0.00 70 1013.4
20260903101545 77 0 2.0 6.0 0.00 0.00 0.00 70 1013.4
20260903101025 77 177 1.0 6.0 0.00 0.00 0.00 70 1013.4
20260903100527 77 0 0.0 5.0 0.00 0.00 0.00 70 1013.5
20260903100048 77 0 0.0 5.0 0.00 0.00 0.00 70 1013.4
20260903095524 77 0 0.0 5.0 0.00 0.00 0.00 70 1013.3
20260903095026 77 0 0.0 9.0 0.00 0.00 0.00 70 1013.4
20260903094555 77 180 0.0 9.0 0.00 0.00 0.00 70 1013.4
20260903094028 77 0 2.0 9.0 0.00 0.00 0.00 70 1013.5
20260903093532 77 0 0.0 4.0 0.00 0.00 0.00 70 1013.5
20260903093046 77 0 0.0 5.0 0.00 0.00 0.00 70 1013.5
20260903092525 77 0 0.0 5.0 0.00 0.00 0.00 70 1013.4
20260903092026 77 0 0.0 5.0 0.00 0.00 0.00 70 1013.4
20260903091542 77 0 0.0 0.0 0.00 0.00 0.00 70 1013.4
20260903091024 77 0 0.0 0.0 0.00 0.00 0.00 69 1013.3
20260903090525 78 0 0.0 0.0 0.00 0.00 0.00 68 1013.3
20260903090051 78 0 0.0 0.0 0.00 0.00 0.00 68 1013.3
20260903085523 78 0 0.0 0.0 0.00 0.00 0.00 68 1013.4
20260903085024 78 0 0.0 0.0 0.00 0.00 0.00 68 1013.3
20260903084545 79 0 0.0 0.0 0.00 0.00 0.00 67 1013.4
20260903084025 79 0 0.0 0.0 0.00 0.00 0.00 66 1013.3
20260903083524 79 0 0.0 0.0 0.00 0.00 0.00 65 1013.3
20260903083041 79 0 0.0 3.0 0.00 0.00 0.00 65 1013.3
20260903082523 79 0 0.0 4.0 0.00 0.00 0.00 65 1013.4
20260903082024 79 0 0.0 6.0 0.00 0.00 0.00 65 1013.3
20260903081551 79 164 1.0 6.0 0.00 0.00 0.00 65 1013.3
20260903081027 79 0 0.0 6.0 0.00 0.00 0.00 67 1013.3
20260903080526 78 154 0.0 6.0 0.00 0.00 0.00 68 1013.2
20260903080047 78 181 0.0 0.0 0.00 0.00 0.00 67 1013.2
20260903075525 78 0 0.0 0.0 0.00 0.00 0.00 67 1013.1
20260903075023 79 0 0.0 0.0 0.00 0.00 0.00 66 1013.1
20260903074541 79 0 0.0 0.0 0.00 0.00 0.00 66 1013.1
20260903074024 79 0 0.0 0.0 0.00 0.00 0.00 65 1013.2
20260903073528 79 0 0.0 0.0 0.00 0.00 0.00 65 1013.2
20260903073046 80 0 0.0 0.0 0.00 0.00 0.00 64 1013.1
20260903072522 80 0 0.0 0.0 0.00 0.00 0.00 64 1013.2
20260903072024 80 0 0.0 1.0 0.00 0.00 0.00 63 1013.1
20260903071547 80 0 0.0 1.0 0.00 0.00 0.00 63 1013.2
20260903071023 81 0 0.0 1.0 0.00 0.00 0.00 62 1013.2
20260903070526 81 0 0.0 1.0 0.00 0.00 0.00 62 1013.2
20260903070046 81 0 0.0 1.0 0.00 0.00 0.00 62 1013.1
20260903065525 81 0 0.0 1.0 0.00 0.00 0.00 61 1013.2
20260903065024 81 0 0.0 3.0 0.00 0.00 0.00 61 1013.1
20260903064540 82 0 0.0 3.0 0.00 0.00 0.00 61 1013.1
20260903064024 82 185 0.0 3.0 0.00 0.00 0.00 61 1013.1
20260903063524 82 0 0.0 3.0 0.00 0.00 0.00 61 1013.1
20260903063055 82 185 0.0 3.0 0.00 0.00 0.00 61 1013.1
20260903062527 82 0 0.0 5.0 0.00 0.00 0.00 61 1013.1
20260903062026 82 0 0.0 5.0 0.00 0.00 0.00 60 1013.1
20260903061559 82 0 1.0 4.0 0.00 0.00 0.00 61 1013.1
20260903061023 82 0 0.0 4.0 0.00 0.00 0.00 61 1013.2
20260903060524 82 0 0.0 4.0 0.00 0.00 0.00 61 1013.1
20260903060048 82 0 0.0 4.0 0.00 0.00 0.00 61 1013.1
20260903055528 82 0 0.0 4.0 0.00 0.00 0.00 60 1013.1
20260903055024 82 0 0.0 5.0 0.00 0.00 0.00 60 1013.1
20260903054542 82 0 0.0 5.0 0.00 0.00 0.00 60 1013.1
20260903054024 82 0 0.0 5.0 0.00 0.00 0.00 60 1013.1
20260903053523 82 194 0.0 3.0 0.00 0.00 0.00 60 1013.0
20260903053105 82 0 0.0 1.0 0.00 0.00 0.00 60 1013.0
20260903052523 83 0 0.0 1.0 0.00 0.00 0.00 59 1013.1
20260903052025 83 0 0.0 1.0 0.00 0.00 0.00 59 1013.1
20260903051548 83 0 0.0 1.0 0.00 0.00 0.00 58 1013.2
20260903051024 83 0 0.0 1.0 0.00 0.00 0.00 58 1013.1
20260903050524 84 0 0.0 1.0 0.00 0.00 0.00 57 1013.1
20260903050053 84 0 0.0 2.0 0.00 0.00 0.00 57 1013.1
20260903045525 84 0 0.0 3.0 0.00 0.00 0.00 56 1013.2
20260903045023 84 0 0.0 3.0 0.00 0.00 0.00 56 1013.1
20260903044549 84 139 0.0 2.0 0.00 0.00 0.00 56 1013.1
20260903044023 85 0 0.0 2.0 0.00 0.00 0.00 55 1013.1
20260903043524 85 0 0.0 3.0 0.00 0.00 0.00 55 1013.1
20260903043045 85 0 1.0 4.0 0.00 0.00 0.00 55 1013.2
20260903042526 85 0 0.0 4.0 0.00 0.00 0.00 55 1013.3
20260903042024 85 175 0.0 5.0 0.00 0.00 0.00 55 1013.3
20260903041542 85 0 0.0 5.0 0.00 0.00 0.00 54 1013.3
20260903041025 85 0 0.0 4.0 0.00 0.00 0.00 54 1013.4
20260903040524 85 0 0.0 4.0 0.00 0.00 0.00 54 1013.3
20260903040040 86 152 0.0 3.0 0.00 0.00 0.00 54 1013.3
20260903035527 86 0 0.0 3.0 0.00 0.00 0.00 53 1013.3
20260903035024 86 155 0.0 4.0 0.00 0.00 0.00 54 1013.3
20260903034546 86 0 0.0 4.0 0.00 0.00 0.00 53 1013.3
20260903034024 86 0 0.0 4.0 0.00 0.00 0.00 53 1013.3
20260903033524 87 0 0.0 4.0 0.00 0.00 0.00 53 1013.4
20260903033051 87 0 1.0 5.0 0.00 0.00 0.00 53 1013.3
20260903032523 87 0 2.0 5.0 0.00 0.00 0.00 52 1013.3
20260903032026 87 164 1.0 6.0 0.00 0.00 0.00 52 1013.2
20260903031549 87 167 1.0 6.0 0.00 0.00 0.00 52 1013.2
20260903031024 87 165 1.0 7.0 0.00 0.00 0.00 52 1013.3
20260903030524 87 134 1.0 7.0 0.00 0.00 0.00 52 1013.2
20260903030106 87 168 1.0 6.0 0.00 0.00 0.00 52 1013.2
20260903025529 88 159 0.0 7.0 0.00 0.00 0.00 51 1013.1
20260903025024 88 0 1.0 8.0 0.00 0.00 0.00 51 1013.1
20260903024548 88 0 1.0 8.0 0.00 0.00 0.00 51 1013.1
20260903024023 88 0 1.0 6.0 0.00 0.00 0.00 51 1013.1
20260903023524 88 169 2.0 8.0 0.00 0.00 0.00 51 1013.1
20260903023046 88 138 1.0 8.0 0.00 0.00 0.00 51 1013.1
20260903022524 88 146 2.0 5.0 0.00 0.00 0.00 50 1013.1
20260903022024 88 0 1.0 5.0 0.00 0.00 0.00 50 1013.0
20260903021542 88 0 0.0 6.0 0.00 0.00 0.00 50 1013.0
20260903021026 89 0 1.0 6.0 0.00 0.00 0.00 50 1013.0
20260903020526 89 0 2.0 6.0 0.00 0.00 0.00 50 1012.9
20260903020050 89 157 1.0 7.0 0.00 0.00 0.00 49 1012.9
20260903015525 89 201 1.0 7.0 0.00 0.00 0.00 49 1012.8
20260903015023 89 161 2.0 7.0 0.00 0.00 0.00 49 1012.7
20260903014555 89 176 0.0 4.0 0.00 0.00 0.00 49 1012.7
20260903014026 89 0 0.0 3.0 0.00 0.00 0.00 48 1012.6
20260903013526 90 0 0.0 3.0 0.00 0.00 0.00 48 1012.6
20260903013045 90 0 0.0 5.0 0.00 0.00 0.00 47 1012.5
20260903012526 90 170 1.0 5.0 0.00 0.00 0.00 46 1012.4
20260903012025 90 185 1.0 5.0 0.00 0.00 0.00 46 1012.3
20260903011605 91 151 0.0 5.0 0.00 0.00 0.00 46 1012.2
20260903011026 91 0 0.0 5.0 0.00 0.00 0.00 46 1012.1
20260903010525 91 0 0.0 5.0 0.00 0.00 0.00 46 1012.1
20260903010059 91 0 0.0 3.0 0.00 0.00 0.00 46 1012.1
20260903005523 92 150 0.0 3.0 0.00 0.00 0.00 45 1012.2
20260903005026 92 0 0.0 4.0 0.00 0.00 0.00 45 1012.2
20260903004546 92 0 0.0 4.0 0.00 0.00 0.00 44 1012.1
20260903004025 93 0 0.0 4.0 0.00 0.00 0.00 44 1012.1
20260903003525 93 98 1.0 5.0 0.00 0.00 0.00 43 1012.1
20260903003043 94 119 0.0 5.0 0.00 0.00 0.00 43 1012.1
20260903002525 94 133 0.0 6.0 0.00 0.00 0.00 43 1012.0
20260903002026 94 166 1.0 7.0 0.00 0.00 0.00 42 1012.0
20260903001552 95 158 3.0 7.0 0.00 0.00 0.00 42 1012.1
20260903001025 95 175 1.0 7.0 0.00 0.00 0.00 41 1012.1
20260903000523 95 180 2.0 9.0 0.00 0.00 0.00 41 1012.1
20260903000048 95 0 2.0 9.0 0.00 0.00 0.00 41 1012.1
20260902235525 96 169 1.0 8.0 0.00 0.00 0.00 41 1012.1
20260902235025 96 171 4.0 8.0 0.00 0.00 0.00 41 1012.2
20260902234546 96 165 2.0 9.0 0.00 0.00 0.00 41 1012.2
20260902234026 96 0 3.0 9.0 0.00 0.00 0.00 40 1012.1
20260902233526 96 155 3.0 9.0 0.00 0.00 0.00 40 1012.2
20260902233046 96 173 3.0 9.0 0.00 0.00 0.00 39 1012.2
20260902232529 96 180 2.0 15.0 0.00 0.00 0.00 40 1012.1
20260902232023 96 0 4.0 15.0 0.00 0.00 0.00 39 1012.2
20260902231600 96 197 3.0 13.0 0.00 0.00 0.00 39 1012.3
20260902231026 97 163 4.0 13.0 0.00 0.00 0.00 39 1012.2
20260902230526 97 169 4.0 14.0 0.00 0.00 0.00 39 1012.3
20260902230048 97 176 4.0 14.0 0.00 0.00 0.00 39 1012.3
20260902225525 98 169 1.0 11.0 0.00 0.00 0.00 39 1012.2
20260902225023 98 0 3.0 11.0 0.00 0.00 0.00 38 1012.3
20260902224556 98 191 2.0 11.0 0.00 0.00 0.00 38 1012.3
20260902224031 98 132 3.0 12.0 0.00 0.00 0.00 39 1012.3
20260902223526 98 273 4.0 12.0 0.00 0.00 0.00 38 1012.3
20260902223050 98 167 3.0 11.0 0.00 0.00 0.00 39 1012.4
20260902222524 98 185 4.0 11.0 0.00 0.00 0.00 38 1012.3
20260902222028 98 0 3.0 18.0 0.00 0.00 0.00 39 1012.4
20260902221600 98 165 4.0 18.0 0.00 0.00 0.00 38 1012.3
20260902221024 98 193 4.0 16.0 0.00 0.00 0.00 38 1012.3
20260902220525 98 5 4.0 18.0 0.00 0.00 0.00 39 1012.4
20260902220058 98 153 6.0 18.0 0.00 0.00 0.00 38 1012.3
20260902215525 98 173 4.0 14.0 0.00 0.00 0.00 38 1012.4
20260902215025 98 141 5.0 14.0 0.00 0.00 0.00 39 1012.5
20260902214543 98 174 4.0 12.0 0.00 0.00 0.00 38 1012.4
20260902214025 99 182 3.0 10.0 0.00 0.00 0.00 38 1012.5
20260902213525 99 165 4.0 14.0 0.00 0.00 0.00 38 1012.5
20260902213041 99 152 4.0 14.0 0.00 0.00 0.00 38 1012.6
20260902212525 99 138 6.0 14.0 0.00 0.00 0.00 37 1012.6
20260902212028 99 182 3.0 14.0 0.00 0.00 0.00 37 1012.7
20260902211547 100 225 1.0 15.0 0.00 0.00 0.00 37 1012.9
20260902211026 99 0 5.0 15.0 0.00 0.00 0.00 37 1012.9
20260902210526 99 131 4.0 11.0 0.00 0.00 0.00 37 1012.9
20260902210046 99 140 1.0 13.0 0.00 0.00 0.00 38 1013.0
20260902205525 99 247 4.0 13.0 0.00 0.00 0.00 38 1013.1
20260902205026 99 314 2.0 13.0 0.00 0.00 0.00 36 1013.1
20260902204549 98 0 2.0 9.0 0.00 0.00 0.00 38 1013.3
20260902204025 99 17 2.0 8.0 0.00 0.00 0.00 36 1013.4
20260902203526 100 173 2.0 7.0 0.00 0.00 0.00 36 1013.3
20260902203048 100 292 1.0 15.0 0.00 0.00 0.00 37 1013.4
20260902202523 98 168 2.0 15.0 0.00 0.00 0.00 39 1013.5
20260902202025 99 187 4.0 10.0 0.00 0.00 0.00 37 1013.6
20260902201554 99 103 3.0 9.0 0.00 0.00 0.00 38 1013.5
20260902201025 98 182 5.0 9.0 0.00 0.00 0.00 39 1013.7
20260902200525 98 142 3.0 11.0 0.00 0.00 0.00 40 1013.7
20260902200048 98 103 1.0 11.0 0.00 0.00 0.00 39 1013.9
20260902195524 99 252 2.0 11.0 0.00 0.00 0.00 38 1013.9
20260902195022 99 0 2.0 9.0 0.00 0.00 0.00 39 1013.9
20260902194546 100 159 2.0 9.0 0.00 0.00 0.00 38 1014.0
20260902194026 100 190 3.0 9.0 0.00 0.00 0.00 37 1014.1
20260902193525 100 0 2.0 10.0 0.00 0.00 0.00 37 1014.2
20260902193054 100 242 1.0 10.0 0.00 0.00 0.00 36 1014.2
20260902192525 100 275 2.0 11.0 0.00 0.00 0.00 39 1014.2
20260902192025 100 108 2.0 11.0 0.00 0.00 0.00 37 1014.2
20260902191542 99 271 3.0 15.0 0.00 0.00 0.00 39 1014.3